owner,sensor,date,latitude,longitude,air_pressure(mBar),qcFlag 
TABS,ioos:station:wmo:42043:1,2009-05-01T00:00:00Z,28.9818,-94.9186,1011.39,11111222 
TABS,ioos:station:wmo:42043:1,2009-05-01T00:30:00Z,28.9818,-94.9186,1008.65,11111222 
TABS,ioos:station:wmo:42043:1,2009-05-01T01:00:00Z,28.9818,-94.9186,1008.71,11111222 
TABS,ioos:station:wmo:42043:1,2009-05-01T01:30:00Z,28.9818,-94.9186,1009.04,11111222 
TABS,ioos:station:wmo:42043:1,2009-05-01T02:00:00Z,28.9818,-94.9186,1007.72,11111222 
TABS,ioos:station:wmo:42043:1,2009-05-01T02:30:00Z,28.9818,-94.9186,1008.68,11111222 
TABS,ioos:station:wmo:42043:1,2009-05-01T03:00:00Z,28.9818,-94.9186,1009.22,11111222 
TABS,ioos:station:wmo:42043:1,2009-05-01T03:30:00Z,28.9818,-94.9186,1009.88,11111222 
TABS,ioos:station:wmo:42043:1,2009-05-01T04:00:00Z,28.9818,-94.9186,1009.61,11111222 
TABS,ioos:station:wmo:42043:1,2009-05-01T04:30:00Z,28.9818,-94.9186,1009.55,11111222 
TABS,ioos:station:wmo:42043:1,2009-05-01T05:00:00Z,28.9818,-94.9186,1009.54,11111222 
TABS,ioos:station:wmo:42043:1,2009-05-01T05:30:00Z,28.9818,-94.9186,1009.77,11111222 
TABS,ioos:station:wmo:42043:1,2009-05-01T06:00:00Z,28.9818,-94.9186,1009.94,11111222 
TABS,ioos:station:wmo:42043:1,2009-05-01T06:30:00Z,28.9818,-94.9186,1010.27,11111222 
TABS,ioos:station:wmo:42043:1,2009-05-01T07:00:00Z,28.9818,-94.9186,1010.07,11111222 
TABS,ioos:station:wmo:42043:1,2009-05-01T07:30:00Z,28.9818,-94.9186,1010.24,11111222 
TABS,ioos:station:wmo:42043:1,2009-05-01T08:00:00Z,28.9818,-94.9186,1010.17,11111222 
TABS,ioos:station:wmo:42043:1,2009-05-01T08:30:00Z,28.9818,-94.9186,1010.1,11111222 
TABS,ioos:station:wmo:42043:1,2009-05-01T09:00:00Z,28.9818,-94.9186,1010.1,11111222 
TABS,ioos:station:wmo:42043:1,2009-05-01T09:30:00Z,28.9818,-94.9186,1010.34,11111222 
TABS,ioos:station:wmo:42043:1,2009-05-01T10:00:00Z,28.9818,-94.9186,1010.24,11111222 
TABS,ioos:station:wmo:42043:1,2009-05-01T10:30:00Z,28.9818,-94.9186,1010.02,11111222 
TABS,ioos:station:wmo:42043:1,2009-05-01T11:00:00Z,28.9818,-94.9186,1010.05,11111222 
TABS,ioos:station:wmo:42043:1,2009-05-01T11:30:00Z,28.9818,-94.9186,1010.3,11111222 
TABS,ioos:station:wmo:42043:1,2009-05-01T12:00:00Z,28.9818,-94.9186,1011.2,11111222 
TABS,ioos:station:wmo:42043:1,2009-05-01T12:30:00Z,28.9818,-94.9186,1016.0,11111222 
TABS,ioos:station:wmo:42043:1,2009-05-01T13:00:00Z,28.9818,-94.9186,1014.88,11111222 
TABS,ioos:station:wmo:42043:1,2009-05-01T13:30:00Z,28.9818,-94.9186,1015.1,11111222 
TABS,ioos:station:wmo:42043:1,2009-05-01T14:00:00Z,28.9818,-94.9186,1014.25,11111222 
TABS,ioos:station:wmo:42043:1,2009-05-01T14:30:00Z,28.9818,-94.9186,1018.14,11111222 
TABS,ioos:station:wmo:42043:1,2009-05-01T15:00:00Z,28.9818,-94.9186,1023.07,11111222 
TABS,ioos:station:wmo:42043:1,2009-05-01T15:30:00Z,28.9818,-94.9186,1021.39,11111222 
TABS,ioos:station:wmo:42043:1,2009-05-01T16:00:00Z,28.9818,-94.9186,1019.57,11111222 
TABS,ioos:station:wmo:42043:1,2009-05-01T16:30:00Z,28.9818,-94.9186,1018.68,11111222 
TABS,ioos:station:wmo:42043:1,2009-05-01T17:00:00Z,28.9818,-94.9186,1018.97,11111222 
TABS,ioos:station:wmo:42043:1,2009-05-01T17:30:00Z,28.9818,-94.9186,1013.79,11111222 
TABS,ioos:station:wmo:42043:1,2009-05-01T18:00:00Z,28.9818,-94.9186,1011.27,11111222 
TABS,ioos:station:wmo:42043:1,2009-05-01T18:30:00Z,28.9818,-94.9186,1019.2,11111222 
TABS,ioos:station:wmo:42043:1,2009-05-01T19:00:00Z,28.9818,-94.9186,1017.56,11111222 
TABS,ioos:station:wmo:42043:1,2009-05-01T19:30:00Z,28.9818,-94.9186,1016.53,11111222 
TABS,ioos:station:wmo:42043:1,2009-05-01T20:00:00Z,28.9818,-94.9186,1014.94,11111222 
TABS,ioos:station:wmo:42043:1,2009-05-01T20:30:00Z,28.9818,-94.9186,1015.63,11111222 
TABS,ioos:station:wmo:42043:1,2009-05-01T21:00:00Z,28.9818,-94.9186,1015.71,11111222 
TABS,ioos:station:wmo:42043:1,2009-05-01T21:30:00Z,28.9818,-94.9186,1013.59,11111222 
TABS,ioos:station:wmo:42043:1,2009-05-01T22:00:00Z,28.9818,-94.9186,1014.5,11111222 
TABS,ioos:station:wmo:42043:1,2009-05-01T22:30:00Z,28.9818,-94.9186,1010.13,11111222 
TABS,ioos:station:wmo:42043:1,2009-05-01T23:00:00Z,28.9818,-94.9186,1009.02,11111222 
TABS,ioos:station:wmo:42043:1,2009-05-01T23:30:00Z,28.9818,-94.9186,1008.15,11111222 
TABS,ioos:station:wmo:42043:1,2009-05-02T00:00:00Z,28.9818,-94.9186,1006.24,11111222 
TABS,ioos:station:wmo:42043:1,2009-05-02T00:30:00Z,28.9818,-94.9186,1003.52,11111222 
TABS,ioos:station:wmo:42043:1,2009-05-02T01:00:00Z,28.9818,-94.9186,1002.48,11111222 
TABS,ioos:station:wmo:42043:1,2009-05-02T01:30:00Z,28.9818,-94.9186,1002.22,11111222 
TABS,ioos:station:wmo:42043:1,2009-05-02T02:00:00Z,28.9818,-94.9186,1002.43,11111222 
TABS,ioos:station:wmo:42043:1,2009-05-02T02:30:00Z,28.9818,-94.9186,1002.8,11111222 
TABS,ioos:station:wmo:42043:1,2009-05-02T03:00:00Z,28.9818,-94.9186,1003.06,11111222 
TABS,ioos:station:wmo:42043:1,2009-05-02T03:30:00Z,28.9818,-94.9186,1003.91,11111222 
TABS,ioos:station:wmo:42043:1,2009-05-02T04:00:00Z,28.9818,-94.9186,1004.48,11111222 
TABS,ioos:station:wmo:42043:1,2009-05-02T04:30:00Z,28.9818,-94.9186,1004.24,11111222 
TABS,ioos:station:wmo:42043:1,2009-05-02T05:00:00Z,28.9818,-94.9186,1004.32,11111222 
TABS,ioos:station:wmo:42043:1,2009-05-02T05:30:00Z,28.9818,-94.9186,1004.35,11111222 
TABS,ioos:station:wmo:42043:1,2009-05-02T06:00:00Z,28.9818,-94.9186,1004.55,11111222 
TABS,ioos:station:wmo:42043:1,2009-05-02T06:30:00Z,28.9818,-94.9186,1004.39,11111222 
TABS,ioos:station:wmo:42043:1,2009-05-02T07:00:00Z,28.9818,-94.9186,1004.51,11111222 
TABS,ioos:station:wmo:42043:1,2009-05-02T07:30:00Z,28.9818,-94.9186,1004.76,11111222 
TABS,ioos:station:wmo:42043:1,2009-05-02T08:00:00Z,28.9818,-94.9186,1004.8,11111222 
TABS,ioos:station:wmo:42043:1,2009-05-02T08:30:00Z,28.9818,-94.9186,1003.98,11111222 
TABS,ioos:station:wmo:42043:1,2009-05-02T09:00:00Z,28.9818,-94.9186,1003.66,11111222 
TABS,ioos:station:wmo:42043:1,2009-05-02T09:30:00Z,28.9818,-94.9186,1003.7,11111222 
TABS,ioos:station:wmo:42043:1,2009-05-02T10:00:00Z,28.9818,-94.9186,1002.95,11111222 
TABS,ioos:station:wmo:42043:1,2009-05-02T10:30:00Z,28.9818,-94.9186,1002.7,11111222 
TABS,ioos:station:wmo:42043:1,2009-05-02T11:00:00Z,28.9818,-94.9186,1002.82,11111222 
TABS,ioos:station:wmo:42043:1,2009-05-02T11:30:00Z,28.9818,-94.9186,1002.79,11111222 
TABS,ioos:station:wmo:42043:1,2009-05-02T12:00:00Z,28.9818,-94.9186,1004.7,11111222 
TABS,ioos:station:wmo:42043:1,2009-05-02T12:30:00Z,28.9818,-94.9186,1010.19,11111222 
TABS,ioos:station:wmo:42043:1,2009-05-02T13:00:00Z,28.9818,-94.9186,1013.25,11111222 
TABS,ioos:station:wmo:42043:1,2009-05-02T13:30:00Z,28.9818,-94.9186,1013.15,11111222 
TABS,ioos:station:wmo:42043:1,2009-05-02T14:00:00Z,28.9818,-94.9186,1013.7,11111222 
TABS,ioos:station:wmo:42043:1,2009-05-02T14:30:00Z,28.9818,-94.9186,1013.9,11111222 
TABS,ioos:station:wmo:42043:1,2009-05-02T15:00:00Z,28.9818,-94.9186,1013.81,11111222 
TABS,ioos:station:wmo:42043:1,2009-05-02T15:30:00Z,28.9818,-94.9186,1013.36,11111222 
TABS,ioos:station:wmo:42043:1,2009-05-02T16:00:00Z,28.9818,-94.9186,1013.38,11111222 
TABS,ioos:station:wmo:42043:1,2009-05-02T16:30:00Z,28.9818,-94.9186,1013.09,11111222 
TABS,ioos:station:wmo:42043:1,2009-05-02T17:00:00Z,28.9818,-94.9186,1012.57,11111222 
TABS,ioos:station:wmo:42043:1,2009-05-02T17:30:00Z,28.9818,-94.9186,1012.62,11111222 
TABS,ioos:station:wmo:42043:1,2009-05-02T18:00:00Z,28.9818,-94.9186,1012.28,11111222 
TABS,ioos:station:wmo:42043:1,2009-05-02T18:30:00Z,28.9818,-94.9186,1011.71,11111222 
TABS,ioos:station:wmo:42043:1,2009-05-02T19:00:00Z,28.9818,-94.9186,1011.55,11111222 
TABS,ioos:station:wmo:42043:1,2009-05-02T19:30:00Z,28.9818,-94.9186,1011.55,11111222 
TABS,ioos:station:wmo:42043:1,2009-05-02T20:00:00Z,28.9818,-94.9186,1011.14,11111222 
TABS,ioos:station:wmo:42043:1,2009-05-02T20:30:00Z,28.9818,-94.9186,1010.94,11111222 
TABS,ioos:station:wmo:42043:1,2009-05-02T21:00:00Z,28.9818,-94.9186,1010.44,11111222 
TABS,ioos:station:wmo:42043:1,2009-05-02T21:30:00Z,28.9818,-94.9186,1009.59,11111222 
TABS,ioos:station:wmo:42043:1,2009-05-02T22:00:00Z,28.9818,-94.9186,1009.65,11111222 
TABS,ioos:station:wmo:42043:1,2009-05-02T22:30:00Z,28.9818,-94.9186,1009.23,11111222 
TABS,ioos:station:wmo:42043:1,2009-05-02T23:00:00Z,28.9818,-94.9186,1009.17,11111222 
TABS,ioos:station:wmo:42043:1,2009-05-02T23:30:00Z,28.9818,-94.9186,1009.27,11111222 
TABS,ioos:station:wmo:42043:1,2009-05-03T00:00:00Z,28.9818,-94.9186,1009.4,11111222 
TABS,ioos:station:wmo:42043:1,2009-05-03T00:30:00Z,28.9818,-94.9186,1010.13,11111222 
TABS,ioos:station:wmo:42043:1,2009-05-03T01:00:00Z,28.9818,-94.9186,1009.72,11111222 
TABS,ioos:station:wmo:42043:1,2009-05-03T01:30:00Z,28.9818,-94.9186,1009.79,11111222 
TABS,ioos:station:wmo:42043:1,2009-05-03T02:00:00Z,28.9818,-94.9186,1009.92,11111222 
TABS,ioos:station:wmo:42043:1,2009-05-03T02:30:00Z,28.9818,-94.9186,1010.06,11111222 
TABS,ioos:station:wmo:42043:1,2009-05-03T03:00:00Z,28.9818,-94.9186,1009.67,11111222 
TABS,ioos:station:wmo:42043:1,2009-05-03T03:30:00Z,28.9818,-94.9186,1009.54,11111222 
TABS,ioos:station:wmo:42043:1,2009-05-03T04:00:00Z,28.9818,-94.9186,1009.89,11111222 
TABS,ioos:station:wmo:42043:1,2009-05-03T04:30:00Z,28.9818,-94.9186,1010.46,11111222 
TABS,ioos:station:wmo:42043:1,2009-05-03T05:00:00Z,28.9818,-94.9186,1010.81,11111222 
TABS,ioos:station:wmo:42043:1,2009-05-03T05:30:00Z,28.9818,-94.9186,1010.77,11111222 
TABS,ioos:station:wmo:42043:1,2009-05-03T06:00:00Z,28.9818,-94.9186,1011.02,11111222 
TABS,ioos:station:wmo:42043:1,2009-05-03T06:30:00Z,28.9818,-94.9186,1011.14,11111222 
TABS,ioos:station:wmo:42043:1,2009-05-03T07:00:00Z,28.9818,-94.9186,1011.1,11111222 
TABS,ioos:station:wmo:42043:1,2009-05-03T07:30:00Z,28.9818,-94.9186,1010.83,11111222 
TABS,ioos:station:wmo:42043:1,2009-05-03T08:00:00Z,28.9818,-94.9186,1010.28,11111222 
TABS,ioos:station:wmo:42043:1,2009-05-03T08:30:00Z,28.9818,-94.9186,1010.06,11111222 
TABS,ioos:station:wmo:42043:1,2009-05-03T09:00:00Z,28.9818,-94.9186,1010.24,11111222 
TABS,ioos:station:wmo:42043:1,2009-05-03T09:30:00Z,28.9818,-94.9186,1010.33,11111222 
TABS,ioos:station:wmo:42043:1,2009-05-03T10:00:00Z,28.9818,-94.9186,1009.81,11111222 
TABS,ioos:station:wmo:42043:1,2009-05-03T10:30:00Z,28.9818,-94.9186,1009.47,11111222 
TABS,ioos:station:wmo:42043:1,2009-05-03T11:00:00Z,28.9818,-94.9186,1009.65,11111222 
TABS,ioos:station:wmo:42043:1,2009-05-03T11:30:00Z,28.9818,-94.9186,1009.23,11111222 
TABS,ioos:station:wmo:42043:1,2009-05-03T12:00:00Z,28.9818,-94.9186,1010.07,11111222 
TABS,ioos:station:wmo:42043:1,2009-05-03T12:30:00Z,28.9818,-94.9186,1010.63,11111222 
TABS,ioos:station:wmo:42043:1,2009-05-03T13:00:00Z,28.9818,-94.9186,1011.15,11111222 
TABS,ioos:station:wmo:42043:1,2009-05-03T13:30:00Z,28.9818,-94.9186,1013.61,11111222 
TABS,ioos:station:wmo:42043:1,2009-05-03T14:00:00Z,28.9818,-94.9186,1010.67,11111222 
TABS,ioos:station:wmo:42043:1,2009-05-03T14:30:00Z,28.9818,-94.9186,1012.07,11111222 
TABS,ioos:station:wmo:42043:1,2009-05-03T15:00:00Z,28.9818,-94.9186,1010.8,11111222 
TABS,ioos:station:wmo:42043:1,2009-05-03T15:30:00Z,28.9818,-94.9186,1011.31,11111222 
TABS,ioos:station:wmo:42043:1,2009-05-03T16:00:00Z,28.9818,-94.9186,1011.04,11111222 
TABS,ioos:station:wmo:42043:1,2009-05-03T16:30:00Z,28.9818,-94.9186,1010.68,11111222 
TABS,ioos:station:wmo:42043:1,2009-05-03T17:00:00Z,28.9818,-94.9186,1010.22,11111222 
TABS,ioos:station:wmo:42043:1,2009-05-03T17:30:00Z,28.9818,-94.9186,1010.14,11111222 
TABS,ioos:station:wmo:42043:1,2009-05-03T18:00:00Z,28.9818,-94.9186,1009.83,11111222 
TABS,ioos:station:wmo:42043:1,2009-05-03T18:30:00Z,28.9818,-94.9186,1009.72,11111222 
TABS,ioos:station:wmo:42043:1,2009-05-03T19:00:00Z,28.9818,-94.9186,1009.69,11111222 
TABS,ioos:station:wmo:42043:1,2009-05-03T19:30:00Z,28.9818,-94.9186,1009.44,11111222 
TABS,ioos:station:wmo:42043:1,2009-05-03T20:00:00Z,28.9818,-94.9186,1009.34,11111222 
TABS,ioos:station:wmo:42043:1,2009-05-03T20:30:00Z,28.9818,-94.9186,1008.81,11111222 
TABS,ioos:station:wmo:42043:1,2009-05-03T21:00:00Z,28.9818,-94.9186,1008.49,11111222 
TABS,ioos:station:wmo:42043:1,2009-05-03T21:30:00Z,28.9818,-94.9186,1008.46,11111222 
TABS,ioos:station:wmo:42043:1,2009-05-03T22:00:00Z,28.9818,-94.9186,1007.99,11111222 
TABS,ioos:station:wmo:42043:1,2009-05-03T22:30:00Z,28.9818,-94.9186,1007.94,11111222 
TABS,ioos:station:wmo:42043:1,2009-05-03T23:00:00Z,28.9818,-94.9186,1008.2,11111222 
TABS,ioos:station:wmo:42043:1,2009-05-03T23:30:00Z,28.9818,-94.9186,1008.14,11111222 
TABS,ioos:station:wmo:42043:1,2009-05-04T00:00:00Z,28.9818,-94.9186,1008.33,11111222 
TABS,ioos:station:wmo:42043:1,2009-05-04T00:30:00Z,28.9818,-94.9186,1008.8,11111222 
TABS,ioos:station:wmo:42043:1,2009-05-04T01:00:00Z,28.9818,-94.9186,1009.08,11111222 
TABS,ioos:station:wmo:42043:1,2009-05-04T01:30:00Z,28.9818,-94.9186,1009.46,11111222 
TABS,ioos:station:wmo:42043:1,2009-05-04T02:00:00Z,28.9818,-94.9186,1009.94,11111222 
TABS,ioos:station:wmo:42043:1,2009-05-04T02:30:00Z,28.9818,-94.9186,1010.28,11111222 
TABS,ioos:station:wmo:42043:1,2009-05-04T03:00:00Z,28.9818,-94.9186,1010.73,11111222 
TABS,ioos:station:wmo:42043:1,2009-05-04T03:30:00Z,28.9818,-94.9186,1012.01,11111222 
TABS,ioos:station:wmo:42043:1,2009-05-04T04:00:00Z,28.9818,-94.9186,1012.23,11111222 
TABS,ioos:station:wmo:42043:1,2009-05-04T04:30:00Z,28.9818,-94.9186,1012.34,11111222 
TABS,ioos:station:wmo:42043:1,2009-05-04T05:00:00Z,28.9818,-94.9186,1012.68,11111222 
TABS,ioos:station:wmo:42043:1,2009-05-04T05:30:00Z,28.9818,-94.9186,1012.23,11111222 
TABS,ioos:station:wmo:42043:1,2009-05-04T06:00:00Z,28.9818,-94.9186,1011.94,11111222 
TABS,ioos:station:wmo:42043:1,2009-05-04T06:30:00Z,28.9818,-94.9186,1012.27,11111222 
TABS,ioos:station:wmo:42043:1,2009-05-04T07:00:00Z,28.9818,-94.9186,1012.17,11111222 
TABS,ioos:station:wmo:42043:1,2009-05-04T07:30:00Z,28.9818,-94.9186,1010.31,11111222 
TABS,ioos:station:wmo:42043:1,2009-05-04T08:00:00Z,28.9818,-94.9186,1006.13,11111222 
TABS,ioos:station:wmo:42043:1,2009-05-04T08:30:00Z,28.9818,-94.9186,1004.0,11111222 
TABS,ioos:station:wmo:42043:1,2009-05-04T09:00:00Z,28.9818,-94.9186,1001.89,11111222 
TABS,ioos:station:wmo:42043:1,2009-05-04T09:30:00Z,28.9818,-94.9186,1000.83,11111222 
TABS,ioos:station:wmo:42043:1,2009-05-04T10:00:00Z,28.9818,-94.9186,1003.61,11111222 
TABS,ioos:station:wmo:42043:1,2009-05-04T10:30:00Z,28.9818,-94.9186,1006.3,11111222 
TABS,ioos:station:wmo:42043:1,2009-05-04T11:00:00Z,28.9818,-94.9186,1012.5,11111222 
TABS,ioos:station:wmo:42043:1,2009-05-04T11:30:00Z,28.9818,-94.9186,1013.21,11111222 
TABS,ioos:station:wmo:42043:1,2009-05-04T12:00:00Z,28.9818,-94.9186,1013.36,11111222 
TABS,ioos:station:wmo:42043:1,2009-05-04T12:30:00Z,28.9818,-94.9186,1013.57,11111222 
TABS,ioos:station:wmo:42043:1,2009-05-04T13:00:00Z,28.9818,-94.9186,1014.72,11111222 
TABS,ioos:station:wmo:42043:1,2009-05-04T13:30:00Z,28.9818,-94.9186,1016.57,11111222 
TABS,ioos:station:wmo:42043:1,2009-05-04T14:00:00Z,28.9818,-94.9186,1018.36,11111222 
TABS,ioos:station:wmo:42043:1,2009-05-04T14:30:00Z,28.9818,-94.9186,1019.59,11111222 
TABS,ioos:station:wmo:42043:1,2009-05-04T15:00:00Z,28.9818,-94.9186,1017.84,11111222 
TABS,ioos:station:wmo:42043:1,2009-05-04T15:30:00Z,28.9818,-94.9186,1018.12,11111222 
TABS,ioos:station:wmo:42043:1,2009-05-04T16:00:00Z,28.9818,-94.9186,1017.8,11111222 
TABS,ioos:station:wmo:42043:1,2009-05-04T16:30:00Z,28.9818,-94.9186,1017.57,11111222 
TABS,ioos:station:wmo:42043:1,2009-05-04T17:00:00Z,28.9818,-94.9186,1016.43,11111222 
TABS,ioos:station:wmo:42043:1,2009-05-04T17:30:00Z,28.9818,-94.9186,1014.52,11111222 
TABS,ioos:station:wmo:42043:1,2009-05-04T18:00:00Z,28.9818,-94.9186,1014.04,11111222 
TABS,ioos:station:wmo:42043:1,2009-05-04T18:30:00Z,28.9818,-94.9186,1013.72,11111222 
TABS,ioos:station:wmo:42043:1,2009-05-04T19:00:00Z,28.9818,-94.9186,1013.53,11111222 
TABS,ioos:station:wmo:42043:1,2009-05-04T19:30:00Z,28.9818,-94.9186,1013.04,11111222 
TABS,ioos:station:wmo:42043:1,2009-05-04T20:00:00Z,28.9818,-94.9186,1012.47,11111222 
TABS,ioos:station:wmo:42043:1,2009-05-04T20:30:00Z,28.9818,-94.9186,1012.01,11111222 
TABS,ioos:station:wmo:42043:1,2009-05-04T21:00:00Z,28.9818,-94.9186,1011.52,11111222 
TABS,ioos:station:wmo:42043:1,2009-05-04T21:30:00Z,28.9818,-94.9186,1011.77,11111222 
TABS,ioos:station:wmo:42043:1,2009-05-04T22:00:00Z,28.9818,-94.9186,1011.6,11111222 
TABS,ioos:station:wmo:42043:1,2009-05-04T22:30:00Z,28.9818,-94.9186,1011.0,11111222 
TABS,ioos:station:wmo:42043:1,2009-05-04T23:00:00Z,28.9818,-94.9186,1008.78,11111222 
TABS,ioos:station:wmo:42043:1,2009-05-04T23:30:00Z,28.9818,-94.9186,1001.81,11111222 
TABS,ioos:station:wmo:42043:1,2009-05-05T00:00:00Z,28.9818,-94.9186,999.9,11111222 
TABS,ioos:station:wmo:42043:1,2009-05-05T00:30:00Z,28.9818,-94.9186,999.09,11111222 
TABS,ioos:station:wmo:42043:1,2009-05-05T01:00:00Z,28.9818,-94.9186,999.56,11111222 
TABS,ioos:station:wmo:42043:1,2009-05-05T01:30:00Z,28.9818,-94.9186,1000.33,11111222 
TABS,ioos:station:wmo:42043:1,2009-05-05T02:00:00Z,28.9818,-94.9186,1000.32,11111222 
TABS,ioos:station:wmo:42043:1,2009-05-05T02:30:00Z,28.9818,-94.9186,1000.41,11111222 
TABS,ioos:station:wmo:42043:1,2009-05-05T03:00:00Z,28.9818,-94.9186,1000.82,11111222 
TABS,ioos:station:wmo:42043:1,2009-05-05T03:30:00Z,28.9818,-94.9186,1000.71,11111222 
TABS,ioos:station:wmo:42043:1,2009-05-05T04:00:00Z,28.9818,-94.9186,1004.29,11111222 
TABS,ioos:station:wmo:42043:1,2009-05-05T04:30:00Z,28.9818,-94.9186,1004.33,11111222 
TABS,ioos:station:wmo:42043:1,2009-05-05T05:00:00Z,28.9818,-94.9186,1003.86,11111222 
TABS,ioos:station:wmo:42043:1,2009-05-05T05:30:00Z,28.9818,-94.9186,1003.78,11111222 
TABS,ioos:station:wmo:42043:1,2009-05-05T06:00:00Z,28.9818,-94.9186,1003.61,11111222 
TABS,ioos:station:wmo:42043:1,2009-05-05T06:30:00Z,28.9818,-94.9186,1003.28,11111222 
TABS,ioos:station:wmo:42043:1,2009-05-05T07:00:00Z,28.9818,-94.9186,1003.13,11111222 
TABS,ioos:station:wmo:42043:1,2009-05-05T07:30:00Z,28.9818,-94.9186,1002.98,11111222 
TABS,ioos:station:wmo:42043:1,2009-05-05T08:00:00Z,28.9818,-94.9186,1003.29,11111222 
TABS,ioos:station:wmo:42043:1,2009-05-05T08:30:00Z,28.9818,-94.9186,1002.98,11111222 
TABS,ioos:station:wmo:42043:1,2009-05-05T09:00:00Z,28.9818,-94.9186,1003.07,11111222 
TABS,ioos:station:wmo:42043:1,2009-05-05T09:30:00Z,28.9818,-94.9186,1003.27,11111222 
TABS,ioos:station:wmo:42043:1,2009-05-05T10:00:00Z,28.9818,-94.9186,1003.61,11111222 
TABS,ioos:station:wmo:42043:1,2009-05-05T10:30:00Z,28.9818,-94.9186,1003.91,11111222 
TABS,ioos:station:wmo:42043:1,2009-05-05T11:00:00Z,28.9818,-94.9186,1004.2,11111222 
TABS,ioos:station:wmo:42043:1,2009-05-05T11:30:00Z,28.9818,-94.9186,1004.58,11111222 
TABS,ioos:station:wmo:42043:1,2009-05-05T12:00:00Z,28.9818,-94.9186,1006.13,11111222 
TABS,ioos:station:wmo:42043:1,2009-05-05T12:30:00Z,28.9818,-94.9186,1007.57,11111222 
TABS,ioos:station:wmo:42043:1,2009-05-05T13:00:00Z,28.9818,-94.9186,1009.5,11111222 
TABS,ioos:station:wmo:42043:1,2009-05-05T13:30:00Z,28.9818,-94.9186,1015.16,11111222 
TABS,ioos:station:wmo:42043:1,2009-05-05T14:00:00Z,28.9818,-94.9186,1017.16,11111222 
TABS,ioos:station:wmo:42043:1,2009-05-05T14:30:00Z,28.9818,-94.9186,1018.6,11111222 
TABS,ioos:station:wmo:42043:1,2009-05-05T15:00:00Z,28.9818,-94.9186,1018.71,11111222 
TABS,ioos:station:wmo:42043:1,2009-05-05T15:30:00Z,28.9818,-94.9186,1018.28,11111222 
TABS,ioos:station:wmo:42043:1,2009-05-05T16:00:00Z,28.9818,-94.9186,1017.97,11111222 
TABS,ioos:station:wmo:42043:1,2009-05-05T16:30:00Z,28.9818,-94.9186,1017.26,11111222 
TABS,ioos:station:wmo:42043:1,2009-05-05T17:00:00Z,28.9818,-94.9186,1017.18,11111222 
TABS,ioos:station:wmo:42043:1,2009-05-05T17:30:00Z,28.9818,-94.9186,1016.29,11111222 
TABS,ioos:station:wmo:42043:1,2009-05-05T18:00:00Z,28.9818,-94.9186,1015.64,11111222 
TABS,ioos:station:wmo:42043:1,2009-05-05T18:30:00Z,28.9818,-94.9186,1019.04,11111222 
TABS,ioos:station:wmo:42043:1,2009-05-05T19:00:00Z,28.9818,-94.9186,1016.86,11111222 
TABS,ioos:station:wmo:42043:1,2009-05-05T19:30:00Z,28.9818,-94.9186,1015.44,11111222 
TABS,ioos:station:wmo:42043:1,2009-05-05T20:00:00Z,28.9818,-94.9186,1016.05,11111222 
TABS,ioos:station:wmo:42043:1,2009-05-05T20:30:00Z,28.9818,-94.9186,1016.34,11111222 
TABS,ioos:station:wmo:42043:1,2009-05-05T21:00:00Z,28.9818,-94.9186,1015.11,11111222 
TABS,ioos:station:wmo:42043:1,2009-05-05T21:30:00Z,28.9818,-94.9186,1013.95,11111222 
TABS,ioos:station:wmo:42043:1,2009-05-05T22:00:00Z,28.9818,-94.9186,1013.66,11111222 
TABS,ioos:station:wmo:42043:1,2009-05-05T22:30:00Z,28.9818,-94.9186,1008.31,11111222 
TABS,ioos:station:wmo:42043:1,2009-05-05T23:00:00Z,28.9818,-94.9186,1006.87,11111222 
TABS,ioos:station:wmo:42043:1,2009-05-05T23:30:00Z,28.9818,-94.9186,1008.0,11111222 
TABS,ioos:station:wmo:42043:1,2009-05-06T00:00:00Z,28.9818,-94.9186,1003.6,11111222 
TABS,ioos:station:wmo:42043:1,2009-05-06T00:30:00Z,28.9818,-94.9186,1002.01,11111222 
TABS,ioos:station:wmo:42043:1,2009-05-06T01:00:00Z,28.9818,-94.9186,1001.67,11111222 
TABS,ioos:station:wmo:42043:1,2009-05-06T01:30:00Z,28.9818,-94.9186,1001.16,11111222 
TABS,ioos:station:wmo:42043:1,2009-05-06T02:00:00Z,28.9818,-94.9186,1001.41,11111222 
TABS,ioos:station:wmo:42043:1,2009-05-06T02:30:00Z,28.9818,-94.9186,1001.23,11111222 
TABS,ioos:station:wmo:42043:1,2009-05-06T03:00:00Z,28.9818,-94.9186,1001.09,11111222 
TABS,ioos:station:wmo:42043:1,2009-05-06T03:30:00Z,28.9818,-94.9186,1001.25,11111222 
TABS,ioos:station:wmo:42043:1,2009-05-06T04:00:00Z,28.9818,-94.9186,1001.85,11111222 
TABS,ioos:station:wmo:42043:1,2009-05-06T04:30:00Z,28.9818,-94.9186,1001.99,11111222 
TABS,ioos:station:wmo:42043:1,2009-05-06T05:00:00Z,28.9818,-94.9186,1001.95,11111222 
TABS,ioos:station:wmo:42043:1,2009-05-06T05:30:00Z,28.9818,-94.9186,1001.83,11111222 
TABS,ioos:station:wmo:42043:1,2009-05-06T06:00:00Z,28.9818,-94.9186,1002.11,11111222 
TABS,ioos:station:wmo:42043:1,2009-05-06T06:30:00Z,28.9818,-94.9186,1002.25,11111222 
TABS,ioos:station:wmo:42043:1,2009-05-06T07:00:00Z,28.9818,-94.9186,1002.77,11111222 
TABS,ioos:station:wmo:42043:1,2009-05-06T07:30:00Z,28.9818,-94.9186,1002.26,11111222 
TABS,ioos:station:wmo:42043:1,2009-05-06T08:00:00Z,28.9818,-94.9186,1002.12,11111222 
TABS,ioos:station:wmo:42043:1,2009-05-06T08:30:00Z,28.9818,-94.9186,1002.2,11111222 
TABS,ioos:station:wmo:42043:1,2009-05-06T09:00:00Z,28.9818,-94.9186,1002.85,11111222 
TABS,ioos:station:wmo:42043:1,2009-05-06T09:30:00Z,28.9818,-94.9186,1003.03,11111222 
TABS,ioos:station:wmo:42043:1,2009-05-06T10:00:00Z,28.9818,-94.9186,1002.47,11111222 
TABS,ioos:station:wmo:42043:1,2009-05-06T10:30:00Z,28.9818,-94.9186,1001.82,11111222 
TABS,ioos:station:wmo:42043:1,2009-05-06T11:00:00Z,28.9818,-94.9186,1001.31,11111222 
TABS,ioos:station:wmo:42043:1,2009-05-06T11:30:00Z,28.9818,-94.9186,1001.73,11111222 
TABS,ioos:station:wmo:42043:1,2009-05-06T12:00:00Z,28.9818,-94.9186,1002.2,11111222 
TABS,ioos:station:wmo:42043:1,2009-05-06T12:30:00Z,28.9818,-94.9186,1002.56,11111222 
TABS,ioos:station:wmo:42043:1,2009-05-06T13:00:00Z,28.9818,-94.9186,1005.04,11111222 
TABS,ioos:station:wmo:42043:1,2009-05-06T13:30:00Z,28.9818,-94.9186,1006.83,11111222 
TABS,ioos:station:wmo:42043:1,2009-05-06T14:00:00Z,28.9818,-94.9186,1006.94,11111222 
TABS,ioos:station:wmo:42043:1,2009-05-06T14:30:00Z,28.9818,-94.9186,1005.79,11111222 
TABS,ioos:station:wmo:42043:1,2009-05-06T15:00:00Z,28.9818,-94.9186,1011.17,11111222 
TABS,ioos:station:wmo:42043:1,2009-05-06T15:30:00Z,28.9818,-94.9186,1012.42,11111222 
TABS,ioos:station:wmo:42043:1,2009-05-06T16:00:00Z,28.9818,-94.9186,1011.6,11111222 
TABS,ioos:station:wmo:42043:1,2009-05-06T16:30:00Z,28.9818,-94.9186,1012.12,11111222 
TABS,ioos:station:wmo:42043:1,2009-05-06T17:00:00Z,28.9818,-94.9186,1011.37,11111222 
TABS,ioos:station:wmo:42043:1,2009-05-06T17:30:00Z,28.9818,-94.9186,1012.65,11111222 
TABS,ioos:station:wmo:42043:1,2009-05-06T18:00:00Z,28.9818,-94.9186,1011.43,11111222 
TABS,ioos:station:wmo:42043:1,2009-05-06T18:30:00Z,28.9818,-94.9186,1011.29,11111222 